Location: Great Malvern
(52.1167°N, 2.3167°W)
Time: 05:44:54
(UTC+00:00)

Lacrosse 5 rocket - Pass Details

Date: 18 September 2020
Orbit: 461 x 635 km, 57.0° (Epoch: 21 October)

Event Time Altitude Azimuth Distance (km) Brightness Sun altitude
Rises 19:44:51 0° 263° (W) 2,755 6.0 -14.1°
Reaches altitude 10° 19:47:05 10° 268° (W) 1,889 5.1 -14.4°
Maximum altitude 19:51:18 52° 345° (NNW) 745 2.2 -15.0°
Enters shadow 19:55:13 13° 61° (ENE) 1,786 3.6 -15.6°
